Date String (YYYY-MM-DD hh:mm:ss) UTC,Instrument flags,absolute air pressure of the measurement (hPa),sample flow rate (lpm),inlet stack bypass flow (lpm),air temperature of the measurement (°C),ambient temperature measured by the external sensor (°C),aerosol sample conditioner tube jacket temperature (°C),OPC LED temperature (°C),internal box temperature (°C),relative humidity of the measurement (%),span deviation,mass concentration of particles derived from Lorenz-Mie calculation of OPC scattering (μg/m³),mass concentration of particles derived from Lorenz-Mie calculation of OPC scattering (μg/m³),mass concentration of particles derived from Lorenz-Mie calculation of OPC scattering (μg/m³)
DateTimeUTC,F1_M11,P_M11,Q1_M11,Q2_M11,T1_M11,T2_M11,T3_M11,T4_M11,T5_M11,U1_M11,ZSPAN_M11,X0_M11,X2_M11,X1_M11
2024-02-18 04:00:00,SystemResetWarning,0830.8,4.99,000.00,018.4,017.8,000.0,026.8,020.0,13.6,0000.0,0006.66,0004.08,0003.79
2024-02-18 04:01:00,SystemResetWarning,0830.7,4.99,000.00,018.4,017.8,000.0,026.8,020.0,13.5,0000.0,0007.02,0004.04,0003.75
2024-02-18 04:02:00,SystemResetWarning,0830.7,5.00,000.00,018.4,017.7,000.0,026.8,020.0,13.5,0000.0,0007.02,0003.98,0003.71
2024-02-18 04:03:00,SystemResetWarning,0830.7,4.99,000.00,018.3,017.7,000.0,026.8,020.0,13.5,0000.0,0007.02,0003.96,0003.69
2024-02-18 04:04:00,SystemResetWarning,0830.7,5.01,000.00,018.3,017.7,000.0,026.8,020.0,13.6,0000.0,0007.05,0003.94,0003.64
2024-02-18 04:05:00,SystemResetWarning,0830.6,5.01,000.00,018.3,017.7,000.0,026.8,020.0,13.8,0000.0,0006.95,0003.89,0003.59
2024-02-18 04:06:00,SystemResetWarning,0830.7,5.01,000.00,018.3,017.7,000.0,026.9,020.0,13.8,0000.0,0006.50,0003.80,0003.52
2024-02-18 04:07:00,SystemResetWarning,0830.7,4.99,000.00,018.3,017.7,000.0,026.9,020.0,13.8,0000.0,0007.07,0003.71,0003.44
2024-02-18 04:08:00,SystemResetWarning,0830.6,5.00,000.00,018.3,017.6,000.0,026.9,020.0,13.9,0000.0,0006.89,0003.62,0003.37
2024-02-18 04:09:00,SystemResetWarning,0830.6,5.00,000.00,018.3,017.6,000.0,026.9,020.0,14.1,0000.0,0006.57,0003.53,0003.30
2024-02-18 04:10:00,SystemResetWarning,0830.6,5.00,000.00,018.3,017.6,000.0,026.9,020.0,14.3,0000.0,0006.33,0003.46,0003.24
2024-02-18 04:11:00,SystemResetWarning,0830.6,5.00,000.00,018.3,017.6,000.0,026.9,020.0,14.2,0000.0,0006.75,0003.41,0003.18
2024-02-18 04:12:00,SystemResetWarning,0830.6,5.00,000.00,018.3,017.6,000.0,026.9,020.0,14.2,0000.0,0006.97,0003.35,0003.14
2024-02-18 04:13:00,SystemResetWarning,0830.6,5.01,000.00,018.3,017.9,000.0,027.0,020.2,14.2,0000.0,0006.65,0003.30,0003.10
2024-02-18 04:14:00,SystemResetWarning,0830.6,5.00,000.00,018.5,018.6,000.0,027.0,020.7,14.2,0000.0,0006.45,0003.24,0003.05
2024-02-18 04:15:00,SystemResetWarning,0830.6,5.00,000.00,018.6,018.8,000.0,027.0,020.7,14.1,0000.0,0006.33,0003.19,0003.01
2024-02-18 04:16:00,SystemResetWarning,0830.6,4.99,000.00,018.6,018.7,000.0,026.9,020.5,14.1,0000.0,0006.41,0003.19,0003.00
2024-02-18 04:17:00,SystemResetWarning,0830.5,5.00,000.00,018.6,018.5,000.0,026.9,020.3,14.2,0000.0,0006.24,0003.22,0003.02
2024-02-18 04:18:00,SystemResetWarning,0830.5,5.00,000.00,018.6,018.4,000.0,026.9,020.2,14.4,0000.0,0005.94,0003.25,0003.09
2024-02-18 04:19:00,SystemResetWarning,0830.5,5.00,000.00,018.5,018.2,000.0,026.9,020.2,14.5,0000.0,0006.33,0003.31,0003.14
2024-02-18 04:20:00,SystemResetWarning,0830.5,5.00,000.00,018.5,018.1,000.0,026.8,020.1,14.6,0000.0,0006.39,0003.34,0003.16
2024-02-18 04:21:00,SystemResetWarning,0830.4,5.01,000.00,018.5,018.0,000.0,026.8,020.1,14.6,0000.0,0006.40,0003.35,0003.19
2024-02-18 04:22:00,SystemResetWarning,0830.6,4.99,000.00,018.5,017.9,000.0,026.8,020.1,14.7,0000.0,0005.99,0003.40,0003.23
2024-02-18 04:23:00,SystemResetWarning,0830.4,5.00,000.00,018.4,017.9,000.0,026.8,020.1,14.8,0000.0,0005.96,0003.45,0003.27
2024-02-18 04:24:00,SystemResetWarning,0830.6,5.00,000.00,018.4,017.8,000.0,026.8,020.0,14.8,0000.0,0006.03,0003.47,0003.30
2024-02-18 04:25:00,SystemResetWarning,0830.6,4.99,000.00,018.4,017.8,000.0,026.9,020.0,14.8,0000.0,0006.14,0003.51,0003.32
2024-02-18 04:26:00,SystemResetWarning,0830.4,5.00,000.00,018.4,017.7,000.0,026.9,020.0,14.7,0000.0,0006.18,0003.56,0003.37
2024-02-18 04:27:00,SystemResetWarning,0830.4,4.99,000.00,018.3,017.7,000.0,026.9,020.0,14.6,0000.0,0006.11,0003.60,0003.42
2024-02-18 04:28:00,SystemResetWarning,0830.4,5.01,000.00,018.3,017.6,000.0,026.9,020.0,14.6,0000.0,0006.33,0003.66,0003.47
2024-02-18 04:29:00,SystemResetWarning,0830.4,5.02,000.00,018.3,017.6,000.0,026.9,020.0,14.6,0000.0,0005.95,0003.72,0003.53
2024-02-18 04:30:00,SystemResetWarning,0830.4,5.01,000.00,018.3,017.6,000.0,026.9,020.0,14.6,0000.0,0005.93,0003.79,0003.56
2024-02-18 04:31:00,SystemResetWarning,0830.4,5.00,000.00,018.3,017.6,000.0,026.9,020.0,14.6,0000.0,0006.10,0003.87,0003.64
2024-02-18 04:32:00,SystemResetWarning,0830.4,4.99,000.00,018.3,017.6,000.0,026.9,020.0,14.6,0000.0,0006.27,0003.97,0003.72
2024-02-18 04:33:00,SystemResetWarning,0830.4,5.00,000.00,018.3,017.8,000.0,026.9,020.1,14.6,0000.0,0006.45,0004.06,0003.80
2024-02-18 04:34:00,SystemResetWarning,0830.6,5.01,000.00,018.5,018.5,000.0,027.0,020.6,14.4,0000.0,0006.08,0004.12,0003.87
2024-02-18 04:35:00,SystemResetWarning,0830.5,4.99,000.00,018.7,019.2,000.0,027.1,021.0,14.2,0000.0,0005.98,0004.22,0003.97
2024-02-18 04:36:00,SystemResetWarning,0830.5,4.98,000.00,018.8,019.2,000.0,027.1,020.9,14.1,0000.0,0006.22,0004.32,0004.05
2024-02-18 04:37:00,SystemResetWarning,0830.4,5.00,000.00,018.8,019.0,000.0,027.0,020.7,14.1,0000.0,0006.40,0004.41,0004.14
2024-02-18 04:38:00,SystemResetWarning,0830.4,5.00,000.00,018.8,018.8,000.0,027.0,020.5,14.1,0000.0,0006.54,0004.48,0004.19
2024-02-18 04:39:00,SystemResetWarning,0830.4,5.01,000.00,018.7,018.6,000.0,027.0,020.4,14.2,0000.0,0006.53,0004.51,0004.24
2024-02-18 04:40:00,SystemResetWarning,0830.4,5.00,000.00,018.7,018.4,000.0,027.0,020.3,14.2,0000.0,0006.47,0004.53,0004.26
2024-02-18 04:41:00,SystemResetWarning,0830.4,4.99,000.00,018.6,018.3,000.0,026.9,020.2,14.2,0000.0,0006.39,0004.52,0004.28
2024-02-18 04:42:00,SystemResetWarning,0830.4,4.99,000.00,018.6,018.1,000.0,026.9,020.2,14.3,0000.0,0006.21,0004.49,0004.29
2024-02-18 04:43:00,SystemResetWarning,0830.3,5.00,000.00,018.6,018.0,000.0,026.9,020.2,14.3,0000.0,0006.21,0004.50,0004.30
2024-02-18 04:44:00,SystemResetWarning,0830.3,4.99,000.00,018.5,017.9,000.0,026.9,020.1,14.3,0000.0,0006.22,0004.49,0004.30
2024-02-18 04:45:00,SystemResetWarning,0830.3,5.00,000.00,018.5,017.8,000.0,026.9,020.1,14.3,0000.0,0006.38,0004.50,0004.30
2024-02-18 04:46:00,SystemResetWarning,0830.4,5.01,000.00,018.5,017.8,000.0,026.9,020.0,14.3,0000.0,0006.45,0004.50,0004.28
2024-02-18 04:47:00,SystemResetWarning,0830.4,5.01,000.00,018.4,017.7,000.0,026.9,020.0,14.3,0000.0,0006.40,0004.47,0004.26
2024-02-18 04:48:00,SystemResetWarning,0830.4,5.00,000.00,018.4,017.7,000.0,026.9,020.0,14.3,0000.0,0006.36,0004.45,0004.23
2024-02-18 04:49:00,SystemResetWarning,0830.3,5.00,000.00,018.4,017.7,000.0,026.9,020.0,14.3,0000.1,0006.41,0004.43,0004.21
2024-02-18 04:50:00,SystemResetWarning,0830.3,5.00,000.00,018.4,017.6,000.0,026.9,020.0,14.3,0000.9,0006.48,0004.41,0004.16
2024-02-18 04:51:00,SystemResetWarning,0830.3,4.99,000.00,018.3,017.6,000.0,026.9,020.0,14.3,0001.3,0006.35,0004.36,0004.11
2024-02-18 04:52:00,SystemResetWarning,0830.4,5.00,000.00,018.3,017.6,000.0,026.9,020.0,14.3,0001.2,0006.28,0004.31,0004.05
2024-02-18 04:53:00,SystemResetWarning,0830.4,5.00,000.00,018.3,017.6,000.0,026.9,020.0,14.3,0001.2,0006.29,0004.27,0004.01
2024-02-18 04:54:00,SystemResetWarning,0830.3,5.02,000.00,018.3,017.5,000.0,026.9,020.0,14.3,0000.5,0006.33,0004.24,0003.96
2024-02-18 04:55:00,SystemResetWarning,0830.3,5.00,000.00,018.3,017.5,000.0,026.9,020.0,14.3,0000.3,0006.20,0004.20,0003.92
2024-02-18 04:56:00,SystemResetWarning,0830.3,4.99,000.00,018.3,017.5,000.0,026.9,020.0,14.3,0001.4,0006.72,0004.17,0003.90
2024-02-18 04:57:00,SystemResetWarning,0830.2,5.00,000.00,018.3,017.6,000.0,026.9,020.0,14.3,0001.2,0007.04,0004.14,0003.88
2024-02-18 04:58:00,SystemResetWarning,0830.3,5.02,000.00,018.4,018.1,000.0,027.0,020.4,14.2,0001.1,0006.93,0004.10,0003.84
2024-02-18 04:59:00,SystemResetWarning,0830.3,5.00,000.00,018.6,018.8,000.0,027.1,020.8,14.0,0000.0,0006.92,0004.07,0003.82
